Dauntless Aviation
Airports North America United States Texas
63TE

FLYING S RANCH AIRPORT

KENNARD, TX, USA

Airport Info
Suggest Updated Information for this Airport

Location

Latitude / Longitude: 31°21'12"N / 95°12'20"W
  31°21.2109'N / 95°12.3463'W
  31.3535 / -95.2058
Elevation: 370 ft. (estimated)
Variation: 06E (1985)
From city: 01 miles SW of KENNARD, TX

Operations

Facility use: Private
Sectional chart: HOUSTON
Control tower: no
Boundary ARTCC: HOUSTON
FSS: MONTGOMERY COUNTY [1-800-WX-BRIEF]
Segmented circle: no

Communications

Nearby radio navigation aids

VOR radial/distance VOR name Freq Var
LFK 295oT/27.6 LUFKIN VORTAC 112.10 05E
 
NDB name Hdg/Dist Freq Var ID
NADOS 252oT/26.1 253 05E OC
CHEROKEE COUNTY 179oT/31.0 263 05E JSO
NACOGDOCHES 235oT/31.1 391 05E GXD
PALESTINE 135oT/36.0 375 04E PSN

Services

Runway Information

Runway 14/32

Dimensions: 2000 x 100 ft.
Surface: NATURAL SOIL,NO SPECIAL SURFACE TREATMENT
 
Runway 14
Runway 32
 

Additional Remarks

Instrument Procedures

No published instrument procedures available
Topographic chart at:
Satellite photo at:
Airport distance calculator
From:
Weather Reports

METAR

KDKR
10.5nm SW
KDKR 230555Z AUTO 15004KT 10SM CLR 19/18 A3016 RMK AO2
KLFK
24.5nm E
KLFK 230553Z AUTO 17006KT 10SM CLR 19/17 A3014 RMK AO2 SLP203 T01890172 10261 20189 402780150 50008
KOCH
28.1nm NE
KOCH 230555Z 17003KT CLR 18/16 A3013 RMK AO1 10260 20150 40270 0140 52007
KJSO
30.8nm NW
KJSO 230555Z AUTO 18007KT 10SM CLR 19/17 A3015 RMK AO2 T01920170
KPSN
36.1nm NW
KPSN 230555Z AUTO 14004KT 10SM CLR 19/17 A3013 RMK AO2 T01970171

TAF

KLFK
24.5nm E
KLFK 230523Z 2306/2406 17006KT P6SM SKC FM230800 VRB04KT 5SM BR BKN015 TEMPO 2309/2313 2SM BR OVC007 FM231500 16012KT P6SM SKC TEMPO 2320/2324 16014G22KT
Safelog

 

Dauntless Aviation

© 2007-2017 Dauntless Aviation, all rights reserved
Information provided via PilotNav comes from a variety of official and unofficial data sources. As errors are possible, do not use PilotNav for primary flight planning purposes. Verify any information that you receive via PilotNav with current and canonical charts and other official documents. The material in this database is subject to database copyrights held by Dauntless Aviation and may not be copied without the express permission of Dauntless Aviation - licenses for use of part of all of this data are available for purchase; enquire via the Dauntless Aviation helpdesk. A number of mechanisms and markers exist in the database to protect against and identify infringement / copyright. Automated queries against this website are stictly prohibited, and all activity is logged and analyzed.